Location: Poughquag
(41.6090°N, 73.6820°W)
Time: 03:17:12
(UTC-04:00)

Transit 4A - Pass Details

Date: 05 June 2020
Orbit: 866 x 978 km, 66.8° (Epoch: 06 July)

Event Time Altitude Azimuth Distance (km) Brightness Sun altitude
Rises 07:46:00 0° 339° (NNW) 3,551 10.8 24.4°
Reaches altitude 10° 07:50:15 10° 7° (N) 2,635 10.6 25.2°
Maximum altitude 07:52:52 13° 33° (NNE) 2,451 10.8 25.6°
Drops below altitude 10° 07:55:31 10° 59° (ENE) 2,664 11.6 26.1°
Sets 07:59:50 0° 86° (E) 3,631 12.3 26.9°
